| time (UTC) | temp F | wind direction | speed MPH | gust MPH | rain 1hr in | rain 24hr in | rain mn in | humidity % | barometer mb |
| 20260906083557 | 67 | 77 | 3.0 | 6.0 | 0.00 | 0.00 | 0.00 | 93 | 1015.1 |
| 20260906083057 | 67 | 47 | 2.0 | 6.0 | 0.00 | 0.00 | 0.00 | 93 | 1015.1 |
| 20260906082557 | 68 | 64 | 3.0 | 7.0 | 0.00 | 0.00 | 0.00 | 93 | 1015.2 |
| 20260906082100 | 68 | 34 | 3.0 | 7.0 | 0.00 | 0.00 | 0.00 | 94 | 1015.1 |
| 20260906081557 | 68 | 90 | 2.0 | 6.0 | 0.00 | 0.00 | 0.00 | 94 | 1015.1 |
| 20260906081055 | 68 | 30 | 2.0 | 6.0 | 0.00 | 0.00 | 0.00 | 94 | 1015.1 |
| 20260906080555 | 68 | 41 | 4.0 | 8.0 | 0.00 | 0.00 | 0.00 | 94 | 1015.0 |
| 20260906080056 | 68 | 33 | 4.0 | 8.0 | 0.00 | 0.00 | 0.00 | 94 | 1015.0 |
| 20260906075553 | 68 | 80 | 1.0 | 5.0 | 0.00 | 0.00 | 0.00 | 95 | 1015.1 |
| 20260906075053 | 68 | 69 | 2.0 | 5.0 | 0.00 | 0.00 | 0.00 | 95 | 1015.0 |
| 20260906074559 | 68 | 69 | 1.0 | 8.0 | 0.00 | 0.00 | 0.00 | 95 | 1015.0 |
| 20260906074154 | 68 | 59 | 3.0 | 8.0 | 0.00 | 0.00 | 0.00 | 95 | 1015.0 |
| 20260906073554 | 68 | 33 | 1.0 | 5.0 | 0.00 | 0.00 | 0.00 | 95 | 1015.0 |
| 20260906073057 | 68 | 55 | 3.0 | 6.0 | 0.00 | 0.00 | 0.00 | 95 | 1015.0 |
| 20260906072555 | 68 | 45 | 2.0 | 7.0 | 0.00 | 0.00 | 0.00 | 95 | 1015.0 |
| 20260906072054 | 68 | 45 | 3.0 | 7.0 | 0.00 | 0.00 | 0.00 | 95 | 1015.0 |
| 20260906071551 | 68 | 41 | 2.0 | 5.0 | 0.00 | 0.00 | 0.00 | 95 | 1015.0 |
| 20260906071051 | 68 | 50 | 0.0 | 6.0 | 0.00 | 0.00 | 0.00 | 96 | 1014.9 |
| 20260906070551 | 68 | 33 | 2.0 | 4.0 | 0.00 | 0.00 | 0.00 | 96 | 1015.0 |
| 20260906070100 | 68 | 72 | 2.0 | 4.0 | 0.00 | 0.00 | 0.00 | 96 | 1015.0 |
| 20260906065553 | 68 | 57 | 1.0 | 5.0 | 0.00 | 0.00 | 0.00 | 96 | 1015.0 |
| 20260906065050 | 68 | 76 | 1.0 | 8.0 | 0.00 | 0.00 | 0.00 | 96 | 1015.1 |
| 20260906064550 | 68 | 47 | 4.0 | 8.0 | 0.00 | 0.00 | 0.00 | 96 | 1014.9 |
| 20260906064050 | 69 | 56 | 3.0 | 6.0 | 0.00 | 0.00 | 0.00 | 96 | 1014.9 |
| 20260906063548 | 69 | 62 | 1.0 | 8.0 | 0.00 | 0.00 | 0.00 | 96 | 1014.9 |
| 20260906063049 | 69 | 31 | 3.0 | 8.0 | 0.00 | 0.00 | 0.00 | 96 | 1014.9 |
| 20260906062549 | 69 | 41 | 1.0 | 5.0 | 0.00 | 0.00 | 0.00 | 96 | 1014.8 |
| 20260906062047 | 69 | 62 | 2.0 | 5.0 | 0.00 | 0.00 | 0.00 | 96 | 1014.9 |
| 20260906061601 | 69 | 62 | 0.0 | 3.0 | 0.00 | 0.00 | 0.00 | 96 | 1014.9 |
| 20260906061047 | 69 | 22 | 1.0 | 4.0 | 0.00 | 0.00 | 0.00 | 96 | 1015.0 |
| 20260906060550 | 69 | 36 | 0.0 | 4.0 | 0.00 | 0.00 | 0.00 | 96 | 1015.1 |
| 20260906060046 | 69 | 24 | 0.0 | 0.0 | 0.00 | 0.00 | 0.00 | 96 | 1015.1 |
| 20260906055546 | 69 | 14 | 0.0 | 0.0 | 0.00 | 0.00 | 0.00 | 96 | 1015.0 |
| 20260906055047 | 69 | 37 | 0.0 | 0.0 | 0.00 | 0.00 | 0.00 | 96 | 1015.1 |
| 20260906054546 | 69 | 9 | 0.0 | 0.0 | 0.00 | 0.00 | 0.00 | 96 | 1015.0 |
| 20260906054045 | 69 | 55 | 0.0 | 0.0 | 0.00 | 0.00 | 0.00 | 96 | 1014.9 |
| 20260906053545 | 69 | 53 | 0.0 | 0.0 | 0.00 | 0.00 | 0.00 | 96 | 1014.8 |
| 20260906053050 | 69 | 43 | 0.0 | 0.0 | 0.00 | 0.00 | 0.00 | 95 | 1014.8 |
| 20260906052543 | 69 | 24 | 0.0 | 0.0 | 0.00 | 0.00 | 0.00 | 95 | 1014.7 |
| 20260906052044 | 69 | 26 | 0.0 | 4.0 | 0.00 | 0.00 | 0.00 | 95 | 1014.8 |
| 20260906051542 | 69 | 26 | 1.0 | 4.0 | 0.00 | 0.00 | 0.00 | 95 | 1014.7 |
| 20260906051043 | 69 | 31 | 0.0 | 0.0 | 0.00 | 0.00 | 0.00 | 95 | 1014.7 |
| 20260906050542 | 69 | 39 | 0.0 | 0.0 | 0.00 | 0.00 | 0.00 | 95 | 1014.6 |
| 20260906050104 | 69 | 14 | 0.0 | 0.0 | 0.00 | 0.00 | 0.00 | 95 | 1014.7 |
| 20260906045542 | 69 | 14 | 0.0 | 0.0 | 0.00 | 0.00 | 0.00 | 95 | 1014.5 |
| 20260906045040 | 69 | 50 | 0.0 | 0.0 | 0.00 | 0.00 | 0.00 | 95 | 1014.5 |
| 20260906044539 | 69 | 37 | 0.0 | 0.0 | 0.00 | 0.00 | 0.00 | 94 | 1014.4 |
| 20260906044039 | 69 | 46 | 0.0 | 0.0 | 0.00 | 0.00 | 0.00 | 94 | 1014.3 |
| 20260906043539 | 69 | 40 | 0.0 | 0.0 | 0.00 | 0.00 | 0.00 | 94 | 1014.2 |
| 20260906043047 | 70 | 49 | 0.0 | 0.0 | 0.00 | 0.00 | 0.00 | 94 | 1014.2 |
| 20260906042539 | 70 | 51 | 0.0 | 0.0 | 0.00 | 0.00 | 0.00 | 94 | 1014.2 |
| 20260906042036 | 70 | 41 | 0.0 | 3.0 | 0.00 | 0.00 | 0.00 | 94 | 1014.1 |
| 20260906041535 | 70 | 70 | 0.0 | 3.0 | 0.00 | 0.00 | 0.00 | 94 | 1014.2 |
| 20260906041035 | 70 | 49 | 0.0 | 0.0 | 0.00 | 0.00 | 0.00 | 94 | 1014.1 |
| 20260906040535 | 70 | 46 | 0.0 | 0.0 | 0.00 | 0.00 | 0.00 | 94 | 1014.1 |
| 20260906040039 | 70 | 53 | 0.0 | 4.0 | 0.00 | 0.00 | 0.00 | 94 | 1014.1 |
| 20260906035533 | 70 | 137 | 0.0 | 4.0 | 0.00 | 0.00 | 0.00 | 93 | 1014.1 |
| 20260906035033 | 70 | 119 | 0.0 | 3.0 | 0.00 | 0.00 | 0.00 | 94 | 1014.1 |
| 20260906034533 | 70 | 126 | 0.0 | 3.0 | 0.00 | 0.00 | 0.00 | 93 | 1014.1 |
| 20260906034032 | 71 | 97 | 0.0 | 5.0 | 0.00 | 0.00 | 0.00 | 93 | 1014.1 |
| 20260906033534 | 71 | 97 | 0.0 | 5.0 | 0.00 | 0.00 | 0.00 | 93 | 1014.2 |
| 20260906033033 | 71 | 78 | 1.0 | 4.0 | 0.00 | 0.00 | 0.00 | 93 | 1014.2 |
| 20260906032531 | 71 | 54 | 2.0 | 4.0 | 0.00 | 0.00 | 0.00 | 93 | 1014.2 |
| 20260906032032 | 71 | 62 | 1.0 | 4.0 | 0.00 | 0.00 | 0.00 | 93 | 1014.1 |
| 20260906031531 | 71 | 97 | 2.0 | 4.0 | 0.00 | 0.00 | 0.00 | 93 | 1014.0 |
| 20260906031030 | 71 | 48 | 1.0 | 4.0 | 0.00 | 0.00 | 0.00 | 93 | 1014.1 |
| 20260906030530 | 71 | 82 | 2.0 | 8.0 | 0.00 | 0.00 | 0.00 | 93 | 1014.0 |
| 20260906030029 | 71 | 99 | 2.0 | 8.0 | 0.00 | 0.00 | 0.00 | 93 | 1013.9 |
| 20260906025529 | 72 | 68 | 2.0 | 7.0 | 0.00 | 0.00 | 0.00 | 93 | 1013.9 |
| 20260906025028 | 72 | 64 | 3.0 | 5.0 | 0.00 | 0.00 | 0.00 | 93 | 1013.9 |
| 20260906024528 | 72 | 62 | 2.0 | 6.0 | 0.00 | 0.00 | 0.00 | 93 | 1013.9 |
| 20260906024027 | 72 | 57 | 3.0 | 9.0 | 0.00 | 0.00 | 0.00 | 93 | 1013.7 |
| 20260906023526 | 72 | 76 | 4.0 | 9.0 | 0.00 | 0.00 | 0.00 | 93 | 1013.7 |
| 20260906023027 | 72 | 9 | 4.0 | 10.0 | 0.00 | 0.00 | 0.00 | 92 | 1013.5 |
| 20260906022525 | 72 | 37 | 4.0 | 10.0 | 0.00 | 0.00 | 0.00 | 92 | 1013.5 |
| 20260906022025 | 72 | 61 | 4.0 | 9.0 | 0.00 | 0.00 | 0.00 | 92 | 1013.5 |
| 20260906021527 | 72 | 4 | 3.0 | 9.0 | 0.00 | 0.00 | 0.00 | 92 | 1013.5 |
| 20260906021024 | 73 | 58 | 4.0 | 8.0 | 0.00 | 0.00 | 0.00 | 91 | 1013.4 |
| 20260906020525 | 73 | 91 | 3.0 | 8.0 | 0.00 | 0.00 | 0.00 | 91 | 1013.4 |
| 20260906020024 | 73 | 76 | 2.0 | 9.0 | 0.00 | 0.00 | 0.00 | 91 | 1013.3 |
| 20260906015524 | 73 | 31 | 3.0 | 9.0 | 0.00 | 0.00 | 0.00 | 91 | 1013.3 |
| 20260906015024 | 73 | 29 | 4.0 | 10.0 | 0.00 | 0.00 | 0.00 | 91 | 1013.2 |
| 20260906014535 | 73 | 29 | 6.0 | 10.0 | 0.00 | 0.00 | 0.00 | 91 | 1013.2 |
| 20260906014021 | 74 | 97 | 3.0 | 9.0 | 0.00 | 0.00 | 0.00 | 91 | 1013.2 |
| 20260906013523 | 74 | 60 | 6.0 | 9.0 | 0.00 | 0.00 | 0.00 | 91 | 1013.1 |
| 20260906013022 | 74 | 80 | 2.0 | 11.0 | 0.00 | 0.00 | 0.00 | 91 | 1013.1 |
| 20260906012527 | 74 | 97 | 3.0 | 10.0 | 0.00 | 0.00 | 0.00 | 91 | 1013.1 |
| 20260906012022 | 74 | 51 | 5.0 | 9.0 | 0.00 | 0.00 | 0.00 | 90 | 1012.9 |
| 20260906011524 | 75 | 78 | 5.0 | 12.0 | 0.00 | 0.00 | 0.00 | 90 | 1012.9 |
| 20260906011022 | 75 | 60 | 6.0 | 12.0 | 0.00 | 0.00 | 0.00 | 90 | 1012.8 |
| 20260906010521 | 75 | 64 | 3.0 | 9.0 | 0.00 | 0.00 | 0.00 | 90 | 1012.8 |
| 20260906010021 | 75 | 61 | 4.0 | 9.0 | 0.00 | 0.00 | 0.00 | 90 | 1012.8 |
| 20260906005520 | 75 | 37 | 4.0 | 11.0 | 0.00 | 0.00 | 0.00 | 89 | 1012.8 |
| 20260906005021 | 76 | 82 | 3.0 | 11.0 | 0.00 | 0.00 | 0.00 | 89 | 1012.6 |
| 20260906004520 | 76 | 56 | 3.0 | 8.0 | 0.00 | 0.00 | 0.00 | 89 | 1012.4 |
| 20260906004020 | 76 | 62 | 4.0 | 10.0 | 0.00 | 0.00 | 0.00 | 89 | 1012.2 |
| 20260906003520 | 76 | 58 | 4.0 | 10.0 | 0.00 | 0.00 | 0.00 | 88 | 1012.0 |
| 20260906003020 | 76 | 32 | 6.0 | 12.0 | 0.00 | 0.00 | 0.00 | 88 | 1011.9 |
| 20260906002519 | 77 | 72 | 4.0 | 12.0 | 0.00 | 0.00 | 0.00 | 88 | 1012.0 |
| 20260906002021 | 77 | 51 | 4.0 | 9.0 | 0.00 | 0.00 | 0.00 | 88 | 1011.9 |
| 20260906001520 | 77 | 51 | 3.0 | 9.0 | 0.00 | 0.00 | 0.00 | 88 | 1011.9 |
| 20260906001019 | 77 | 59 | 3.0 | 9.0 | 0.00 | 0.00 | 0.00 | 87 | 1011.9 |
| 20260906000519 | 78 | 65 | 4.0 | 9.0 | 0.00 | 0.00 | 0.00 | 87 | 1011.9 |
| 20260906000020 | 78 | 72 | 5.0 | 10.0 | 0.00 | 0.00 | 0.00 | 87 | 1011.9 |
| 20260905235520 | 78 | 108 | 3.0 | 9.0 | 0.00 | 0.00 | 0.00 | 86 | 1011.9 |
| 20260905235019 | 78 | 80 | 4.0 | 13.0 | 0.00 | 0.00 | 0.00 | 86 | 1011.9 |
| 20260905234519 | 78 | 85 | 5.0 | 13.0 | 0.00 | 0.00 | 0.00 | 85 | 1011.9 |
| 20260905234019 | 79 | 70 | 4.0 | 13.0 | 0.00 | 0.00 | 0.00 | 85 | 1011.8 |
| 20260905233518 | 79 | 55 | 5.0 | 11.0 | 0.00 | 0.00 | 0.00 | 84 | 1011.8 |
| 20260905233019 | 80 | 91 | 5.0 | 12.0 | 0.00 | 0.00 | 0.00 | 84 | 1011.8 |
| 20260905232518 | 80 | 87 | 4.0 | 12.0 | 0.00 | 0.00 | 0.00 | 84 | 1011.7 |
| 20260905232019 | 81 | 83 | 7.0 | 11.0 | 0.00 | 0.00 | 0.00 | 85 | 1011.5 |
| 20260905231518 | 81 | 80 | 4.0 | 10.0 | 0.00 | 0.00 | 0.00 | 85 | 1011.3 |
| 20260905231019 | 81 | 53 | 4.0 | 8.0 | 0.00 | 0.00 | 0.00 | 84 | 1011.3 |
| 20260905230518 | 81 | 86 | 3.0 | 6.0 | 0.00 | 0.00 | 0.00 | 84 | 1011.3 |
| 20260905230018 | 81 | 64 | 2.0 | 8.0 | 0.00 | 0.00 | 0.00 | 84 | 1011.3 |
| 20260905225517 | 81 | 98 | 4.0 | 9.0 | 0.00 | 0.00 | 0.00 | 83 | 1011.3 |
| 20260905225017 | 82 | 58 | 4.0 | 10.0 | 0.00 | 0.00 | 0.00 | 82 | 1011.2 |
| 20260905224517 | 82 | 39 | 6.0 | 9.0 | 0.00 | 0.00 | 0.00 | 80 | 1011.2 |
| 20260905224017 | 82 | 78 | 2.0 | 10.0 | 0.00 | 0.00 | 0.00 | 79 | 1011.2 |
| 20260905223522 | 83 | 89 | 4.0 | 11.0 | 0.00 | 0.00 | 0.00 | 78 | 1011.1 |
| 20260905223021 | 84 | 58 | 6.0 | 11.0 | 0.00 | 0.00 | 0.00 | 77 | 1011.0 |
| 20260905222519 | 84 | 35 | 2.0 | 5.0 | 0.00 | 0.00 | 0.00 | 78 | 1010.7 |
| 20260905222016 | 84 | 352 | 3.0 | 5.0 | 0.00 | 0.00 | 0.00 | 77 | 1010.8 |
| 20260905221516 | 84 | 14 | 2.0 | 6.0 | 0.00 | 0.00 | 0.00 | 77 | 1010.8 |
| 20260905221019 | 84 | 9 | 2.0 | 6.0 | 0.00 | 0.00 | 0.00 | 76 | 1010.7 |
| 20260905220520 | 85 | 14 | 2.0 | 6.0 | 0.00 | 0.00 | 0.00 | 77 | 1010.6 |
| 20260905220016 | 85 | 4 | 4.0 | 8.0 | 0.00 | 0.00 | 0.00 | 76 | 1010.6 |
| 20260905215516 | 85 | 51 | 5.0 | 8.0 | 0.00 | 0.00 | 0.00 | 75 | 1010.6 |
| 20260905215019 | 85 | 4 | 3.0 | 8.0 | 0.00 | 0.00 | 0.00 | 76 | 1010.6 |
| 20260905214515 | 86 | 23 | 3.0 | 6.0 | 0.00 | 0.00 | 0.00 | 76 | 1010.5 |
| 20260905214016 | 85 | 356 | 3.0 | 6.0 | 0.00 | 0.00 | 0.00 | 76 | 1010.4 |
| 20260905213515 | 85 | 9 | 4.0 | 7.0 | 0.00 | 0.00 | 0.00 | 76 | 1010.4 |
| 20260905213014 | 85 | 355 | 3.0 | 7.0 | 0.00 | 0.00 | 0.00 | 77 | 1010.4 |
| 20260905212514 | 85 | 345 | 4.0 | 7.0 | 0.00 | 0.00 | 0.00 | 76 | 1010.3 |
| 20260905212013 | 85 | 358 | 4.0 | 5.0 | 0.00 | 0.00 | 0.00 | 77 | 1010.4 |
| 20260905211513 | 85 | 342 | 2.0 | 7.0 | 0.00 | 0.00 | 0.00 | 79 | 1010.4 |
| 20260905211015 | 85 | 347 | 4.0 | 7.0 | 0.00 | 0.00 | 0.00 | 78 | 1010.4 |
| 20260905210513 | 85 | 31 | 4.0 | 7.0 | 0.00 | 0.00 | 0.00 | 77 | 1010.5 |
| 20260905210013 | 85 | 9 | 5.0 | 9.0 | 0.00 | 0.00 | 0.00 | 77 | 1010.6 |
| 20260905205512 | 85 | 340 | 5.0 | 9.0 | 0.00 | 0.00 | 0.00 | 78 | 1010.7 |
| 20260905205013 | 85 | 355 | 4.0 | 8.0 | 0.00 | 0.00 | 0.00 | 77 | 1010.7 |
| 20260905204512 | 85 | 14 | 4.0 | 8.0 | 0.00 | 0.00 | 0.00 | 78 | 1010.8 |
| 20260905204013 | 85 | 14 | 5.0 | 8.0 | 0.00 | 0.00 | 0.00 | 77 | 1010.8 |
| 20260905203514 | 85 | 28 | 4.0 | 9.0 | 0.00 | 0.00 | 0.00 | 77 | 1010.9 |
| 20260905203012 | 85 | 51 | 5.0 | 9.0 | 0.00 | 0.00 | 0.00 | 78 | 1010.9 |
| 20260905202513 | 84 | 337 | 4.0 | 9.0 | 0.00 | 0.00 | 0.00 | 79 | 1010.9 |
| 20260905202011 | 84 | 46 | 4.0 | 9.0 | 0.00 | 0.00 | 0.00 | 80 | 1011.1 |
| 20260905201515 | 84 | 4 | 4.0 | 9.0 | 0.00 | 0.00 | 0.00 | 79 | 1011.1 |
| 20260905201010 | 85 | 342 | 5.0 | 9.0 | 0.00 | 0.00 | 0.00 | 78 | 1011.1 |
| 20260905200510 | 85 | 352 | 4.0 | 8.0 | 0.00 | 0.00 | 0.00 | 79 | 1011.2 |
| 20260905200011 | 85 | 337 | 4.0 | 7.0 | 0.00 | 0.00 | 0.00 | 79 | 1011.2 |
| 20260905195511 | 85 | 352 | 1.0 | 5.0 | 0.00 | 0.00 | 0.00 | 79 | 1011.3 |
| 20260905195013 | 85 | 355 | 1.0 | 6.0 | 0.00 | 0.00 | 0.00 | 78 | 1011.2 |
| 20260905194511 | 85 | 22 | 4.0 | 6.0 | 0.00 | 0.00 | 0.00 | 78 | 1011.3 |
| 20260905194011 | 85 | 335 | 2.0 | 6.0 | 0.00 | 0.00 | 0.00 | 78 | 1011.2 |
| 20260905193510 | 85 | 18 | 3.0 | 6.0 | 0.00 | 0.00 | 0.00 | 78 | 1011.3 |
| 20260905193011 | 85 | 344 | 4.0 | 8.0 | 0.00 | 0.00 | 0.00 | 78 | 1011.4 |
| 20260905192514 | 85 | 340 | 5.0 | 8.0 | 0.00 | 0.00 | 0.00 | 79 | 1011.4 |
| 20260905192009 | 85 | 55 | 4.0 | 7.0 | 0.00 | 0.00 | 0.00 | 78 | 1011.4 |
| 20260905191512 | 84 | 37 | 4.0 | 6.0 | 0.00 | 0.00 | 0.00 | 79 | 1011.5 |
| 20260905191008 | 85 | 43 | 3.0 | 6.0 | 0.00 | 0.00 | 0.00 | 77 | 1011.6 |
| 20260905190508 | 85 | 234 | 3.0 | 6.0 | 0.00 | 0.00 | 0.00 | 77 | 1011.7 |
| 20260905190021 | 85 | 306 | 1.0 | 7.0 | 0.00 | 0.00 | 0.00 | 77 | 1011.8 |
| 20260905185507 | 85 | 337 | 2.0 | 7.0 | 0.00 | 0.00 | 0.00 | 76 | 1011.8 |
| 20260905185007 | 85 | 213 | 1.0 | 9.0 | 0.00 | 0.00 | 0.00 | 76 | 1011.6 |
| 20260905184508 | 85 | 272 | 3.0 | 9.0 | 0.00 | 0.00 | 0.00 | 77 | 1011.9 |
| 20260905184007 | 85 | 357 | 2.0 | 7.0 | 0.00 | 0.00 | 0.00 | 76 | 1011.9 |
| 20260905183507 | 85 | 310 | 3.0 | 6.0 | 0.00 | 0.00 | 0.00 | 77 | 1011.9 |
| 20260905183010 | 84 | 4 | 2.0 | 5.0 | 0.00 | 0.00 | 0.00 | 77 | 1011.8 |
| 20260905182507 | 84 | 319 | 1.0 | 5.0 | 0.00 | 0.00 | 0.00 | 76 | 1012.0 |
| 20260905182007 | 84 | 305 | 2.0 | 5.0 | 0.00 | 0.00 | 0.00 | 78 | 1011.9 |
| 20260905181511 | 84 | 326 | 3.0 | 5.0 | 0.00 | 0.00 | 0.00 | 77 | 1012.1 |
| 20260905181006 | 84 | 293 | 3.0 | 6.0 | 0.00 | 0.00 | 0.00 | 76 | 1012.1 |
| 20260905180507 | 84 | 293 | 3.0 | 6.0 | 0.00 | 0.00 | 0.00 | 75 | 1012.1 |
| 20260905180005 | 84 | 287 | 2.0 | 5.0 | 0.00 | 0.00 | 0.00 | 75 | 1012.1 |
| 20260905175508 | 84 | 230 | 1.0 | 5.0 | 0.00 | 0.00 | 0.00 | 75 | 1012.2 |
| 20260905175006 | 84 | 299 | 0.0 | 7.0 | 0.00 | 0.00 | 0.00 | 75 | 1012.2 |
| 20260905174504 | 84 | 203 | 4.0 | 7.0 | 0.00 | 0.00 | 0.00 | 75 | 1012.3 |
| 20260905174003 | 84 | 286 | 3.0 | 7.0 | 0.00 | 0.00 | 0.00 | 76 | 1012.3 |
| 20260905173503 | 84 | 205 | 4.0 | 7.0 | 0.00 | 0.00 | 0.00 | 74 | 1012.3 |
| 20260905173003 | 84 | 209 | 5.0 | 7.0 | 0.00 | 0.00 | 0.00 | 75 | 1012.3 |
| 20260905172502 | 84 | 249 | 4.0 | 8.0 | 0.00 | 0.00 | 0.00 | 75 | 1012.3 |
| 20260905172002 | 84 | 221 | 3.0 | 11.0 | 0.00 | 0.00 | 0.00 | 75 | 1012.4 |
| 20260905171605 | 84 | 144 | 2.0 | 11.0 | 0.00 | 0.00 | 0.00 | 77 | 1012.4 |
| 20260905171100 | 83 | 216 | 6.0 | 9.0 | 0.00 | 0.00 | 0.00 | 76 | 1012.4 |
| 20260905170558 | 83 | 203 | 5.0 | 8.0 | 0.00 | 0.00 | 0.00 | 78 | 1012.5 |
| 20260905170057 | 82 | 214 | 3.0 | 9.0 | 0.00 | 0.00 | 0.00 | 78 | 1012.7 |
| 20260905165600 | 82 | 214 | 5.0 | 9.0 | 0.00 | 0.00 | 0.00 | 79 | 1012.8 |
| 20260905165054 | 82 | 194 | 4.0 | 9.0 | 0.00 | 0.00 | 0.00 | 78 | 1012.7 |
| 20260905164602 | 82 | 164 | 4.0 | 9.0 | 0.00 | 0.00 | 0.00 | 77 | 1012.9 |
| 20260905164055 | 82 | 206 | 1.0 | 6.0 | 0.00 | 0.00 | 0.00 | 78 | 1012.9 |
| 20260905163552 | 81 | 208 | 3.0 | 7.0 | 0.00 | 0.00 | 0.00 | 80 | 1012.9 |
| 20260905163052 | 81 | 232 | 2.0 | 7.0 | 0.00 | 0.00 | 0.00 | 78 | 1013.0 |
| 20260905162550 | 80 | 173 | 1.0 | 5.0 | 0.00 | 0.00 | 0.00 | 80 | 1013.1 |
| 20260905162048 | 80 | 188 | 1.0 | 3.0 | 0.00 | 0.00 | 0.00 | 80 | 1013.0 |
| 20260905161547 | 80 | 159 | 1.0 | 3.0 | 0.00 | 0.00 | 0.00 | 80 | 1013.1 |
| 20260905161047 | 79 | 184 | 0.0 | 4.0 | 0.00 | 0.00 | 0.00 | 81 | 1013.3 |
| 20260905160545 | 79 | 232 | 1.0 | 6.0 | 0.00 | 0.00 | 0.00 | 81 | 1013.2 |
| 20260905160044 | 79 | 226 | 3.0 | 7.0 | 0.00 | 0.00 | 0.00 | 82 | 1013.1 |
| 20260905155543 | 79 | 172 | 3.0 | 7.0 | 0.00 | 0.00 | 0.00 | 83 | 1013.0 |
| 20260905155041 | 78 | 211 | 3.0 | 12.0 | 0.00 | 0.00 | 0.00 | 85 | 1012.9 |
| 20260905154542 | 78 | 217 | 6.0 | 12.0 | 0.00 | 0.00 | 0.00 | 86 | 1012.9 |
| 20260905154039 | 77 | 200 | 6.0 | 12.0 | 0.00 | 0.00 | 0.00 | 88 | 1012.9 |
| 20260905153538 | 76 | 180 | 3.0 | 9.0 | 0.00 | 0.00 | 0.00 | 88 | 1012.8 |
| 20260905153051 | 76 | 207 | 3.0 | 7.0 | 0.00 | 0.00 | 0.00 | 89 | 1012.7 |
| 20260905152537 | 76 | 169 | 3.0 | 7.0 | 0.00 | 0.00 | 0.00 | 89 | 1012.7 |
| 20260905152036 | 75 | 202 | 1.0 | 8.0 | 0.00 | 0.00 | 0.00 | 89 | 1012.7 |
| 20260905151541 | 75 | 182 | 2.0 | 11.0 | 0.00 | 0.00 | 0.00 | 89 | 1012.7 |
| 20260905151036 | 75 | 164 | 3.0 | 11.0 | 0.00 | 0.00 | 0.00 | 89 | 1012.8 |
| 20260905150535 | 75 | 154 | 2.0 | 7.0 | 0.00 | 0.00 | 0.00 | 90 | 1012.8 |
| 20260905150035 | 75 | 174 | 1.0 | 5.0 | 0.00 | 0.00 | 0.00 | 91 | 1012.8 |
| 20260905145534 | 74 | 170 | 1.0 | 4.0 | 0.00 | 0.00 | 0.00 | 91 | 1012.9 |
| 20260905145032 | 74 | 169 | 0.0 | 3.0 | 0.00 | 0.00 | 0.00 | 90 | 1013.0 |
| 20260905144532 | 74 | 153 | 0.0 | 4.0 | 0.00 | 0.00 | 0.00 | 90 | 1012.9 |
| 20260905144031 | 74 | 170 | 1.0 | 4.0 | 0.00 | 0.00 | 0.00 | 90 | 1012.8 |
| 20260905143532 | 74 | 169 | 1.0 | 4.0 | 0.00 | 0.00 | 0.00 | 91 | 1012.8 |
| 20260905143037 | 74 | 164 | 0.0 | 4.0 | 0.00 | 0.00 | 0.00 | 90 | 1013.0 |
| 20260905142532 | 74 | 164 | 1.0 | 4.0 | 0.00 | 0.00 | 0.00 | 91 | 1012.9 |
| 20260905142030 | 74 | 132 | 1.0 | 3.0 | 0.00 | 0.00 | 0.00 | 91 | 1012.8 |
| 20260905141530 | 73 | 206 | 0.0 | 3.0 | 0.00 | 0.00 | 0.00 | 92 | 1012.8 |
| 20260905141029 | 73 | 172 | 1.0 | 4.0 | 0.00 | 0.00 | 0.00 | 92 | 1012.8 |
| 20260905140532 | 73 | 201 | 1.0 | 4.0 | 0.00 | 0.00 | 0.00 | 92 | 1012.8 |
| 20260905140028 | 73 | 192 | 1.0 | 4.0 | 0.00 | 0.00 | 0.00 | 93 | 1012.8 |
| 20260905135527 | 72 | 175 | 0.0 | 3.0 | 0.00 | 0.00 | 0.00 | 94 | 1012.7 |
| 20260905135026 | 72 | 168 | 0.0 | 3.0 | 0.00 | 0.00 | 0.00 | 94 | 1012.6 |
| 20260905134526 | 72 | 170 | 0.0 | 6.0 | 0.00 | 0.00 | 0.00 | 94 | 1012.6 |
| 20260905134026 | 71 | 151 | 3.0 | 6.0 | 0.00 | 0.00 | 0.00 | 93 | 1012.6 |
| 20260905133526 | 71 | 153 | 0.0 | 7.0 | 0.00 | 0.00 | 0.00 | 93 | 1012.5 |
| 20260905133031 | 71 | 166 | 2.0 | 4.0 | 0.00 | 0.00 | 0.00 | 93 | 1012.6 |
| 20260905132524 | 71 | 177 | 1.0 | 4.0 | 0.00 | 0.00 | 0.00 | 94 | 1012.4 |
| 20260905132024 | 71 | 154 | 1.0 | 4.0 | 0.00 | 0.00 | 0.00 | 93 | 1012.4 |
| 20260905131532 | 71 | 162 | 1.0 | 4.0 | 0.00 | 0.00 | 0.00 | 94 | 1012.4 |
| 20260905131024 | 71 | 178 | 0.0 | 4.0 | 0.00 | 0.00 | 0.00 | 94 | 1012.5 |
| 20260905130522 | 71 | 155 | 0.0 | 4.0 | 0.00 | 0.00 | 0.00 | 94 | 1012.4 |
| 20260905130035 | 71 | 198 | 1.0 | 9.0 | 0.00 | 0.00 | 0.00 | 94 | 1012.2 |
| 20260905125522 | 71 | 164 | 2.0 | 7.0 | 0.00 | 0.00 | 0.00 | 94 | 1011.9 |
| 20260905125022 | 71 | 176 | 2.0 | 8.0 | 0.00 | 0.00 | 0.00 | 94 | 1011.7 |
| 20260905124522 | 71 | 203 | 2.0 | 7.0 | 0.00 | 0.00 | 0.00 | 95 | 1011.7 |
| 20260905124020 | 71 | 195 | 3.0 | 12.0 | 0.00 | 0.00 | 0.00 | 95 | 1012.0 |
| 20260905123521 | 71 | 153 | 3.0 | 12.0 | 0.00 | 0.00 | 0.00 | 95 | 1011.9 |
| 20260905123020 | 70 | 207 | 3.0 | 10.0 | 0.00 | 0.00 | 0.00 | 95 | 1012.0 |
| 20260905122523 | 70 | 199 | 3.0 | 9.0 | 0.00 | 0.00 | 0.00 | 95 | 1012.0 |
| 20260905122020 | 70 | 179 | 2.0 | 7.0 | 0.00 | 0.00 | 0.00 | 95 | 1012.0 |
| 20260905121519 | 70 | 181 | 0.0 | 7.0 | 0.00 | 0.00 | 0.00 | 95 | 1012.2 |
| 20260905121019 | 70 | 208 | 1.0 | 5.0 | 0.00 | 0.00 | 0.00 | 95 | 1012.1 |
| 20260905120522 | 69 | 205 | 0.0 | 5.0 | 0.00 | 0.00 | 0.00 | 95 | 1012.2 |
| 20260905120017 | 69 | 156 | 0.0 | 5.0 | 0.00 | 0.00 | 0.00 | 95 | 1012.2 |
| 20260905115517 | 69 | 168 | 1.0 | 6.0 | 0.00 | 0.00 | 0.00 | 95 | 1012.2 |
| 20260905115017 | 69 | 166 | 2.0 | 9.0 | 0.00 | 0.00 | 0.00 | 95 | 1012.1 |
| 20260905114514 | 69 | 172 | 2.0 | 7.0 | 0.00 | 0.00 | 0.00 | 95 | 1012.1 |
| 20260905114013 | 69 | 189 | 1.0 | 6.0 | 0.00 | 0.00 | 0.00 | 95 | 1012.1 |
| 20260905113514 | 69 | 163 | 3.0 | 6.0 | 0.00 | 0.00 | 0.00 | 95 | 1012.0 |
| 20260905113016 | 69 | 193 | 2.0 | 9.0 | 0.00 | 0.00 | 0.00 | 95 | 1012.1 |
| 20260905112515 | 69 | 168 | 3.0 | 9.0 | 0.00 | 0.00 | 0.00 | 94 | 1012.1 |
| 20260905112016 | 69 | 166 | 1.0 | 5.0 | 0.00 | 0.00 | 0.00 | 94 | 1012.1 |
| 20260905111513 | 69 | 195 | 2.0 | 6.0 | 0.00 | 0.00 | 0.00 | 94 | 1012.1 |
| 20260905111014 | 69 | 157 | 2.0 | 6.0 | 0.00 | 0.00 | 0.00 | 94 | 1012.0 |
| 20260905110513 | 69 | 180 | 2.0 | 4.0 | 0.00 | 0.00 | 0.00 | 94 | 1012.0 |
| 20260905110012 | 69 | 163 | 1.0 | 4.0 | 0.00 | 0.00 | 0.00 | 94 | 1011.9 |
| 20260905105512 | 69 | 164 | 1.0 | 4.0 | 0.00 | 0.00 | 0.00 | 94 | 1011.9 |
| 20260905105012 | 69 | 197 | 1.0 | 7.0 | 0.00 | 0.00 | 0.00 | 94 | 1011.9 |
| 20260905104511 | 69 | 151 | 1.0 | 7.0 | 0.00 | 0.00 | 0.00 | 93 | 1012.0 |
| 20260905104011 | 69 | 134 | 1.0 | 6.0 | 0.00 | 0.00 | 0.00 | 93 | 1012.1 |
| 20260905103511 | 70 | 170 | 1.0 | 10.0 | 0.00 | 0.00 | 0.00 | 93 | 1012.0 |
| 20260905103016 | 70 | 145 | 2.0 | 8.0 | 0.00 | 0.00 | 0.00 | 94 | 1012.1 |
| 20260905102510 | 70 | 147 | 4.0 | 8.0 | 0.00 | 0.00 | 0.00 | 94 | 1012.1 |
| 20260905102011 | 70 | 141 | 4.0 | 9.0 | 0.00 | 0.00 | 0.00 | 94 | 1012.1 |
| 20260905101510 | 70 | 136 | 5.0 | 11.0 | 0.00 | 0.00 | 0.00 | 94 | 1012.2 |
| 20260905101009 | 70 | 151 | 3.0 | 11.0 | 0.00 | 0.00 | 0.00 | 94 | 1012.2 |
| 20260905100509 | 70 | 139 | 4.0 | 11.0 | 0.00 | 0.00 | 0.00 | 94 | 1012.3 |
| 20260905100012 | 70 | 122 | 3.0 | 11.0 | 0.00 | 0.00 | 0.00 | 94 | 1012.2 |
| 20260905095507 | 71 | 116 | 4.0 | 8.0 | 0.00 | 0.00 | 0.00 | 94 | 1012.3 |
| 20260905095006 | 71 | 147 | 4.0 | 9.0 | 0.00 | 0.00 | 0.00 | 94 | 1012.1 |
| 20260905094506 | 71 | 144 | 4.0 | 10.0 | 0.00 | 0.00 | 0.00 | 95 | 1012.2 |
| 20260905094002 | 71 | 130 | 5.0 | 10.0 | 0.00 | 0.00 | 0.00 | 95 | 1012.0 |
| 20260905093502 | 72 | 134 | 4.0 | 11.0 | 0.00 | 0.00 | 0.00 | 95 | 1012.1 |
| 20260905093001 | 72 | 118 | 4.0 | 14.0 | 0.00 | 0.00 | 0.00 | 95 | 1012.1 |
| 20260905092559 | 72 | 99 | 7.0 | 14.0 | 0.00 | 0.00 | 0.00 | 95 | 1011.9 |
| 20260905092059 | 73 | 120 | 6.0 | 13.0 | 0.00 | 0.00 | 0.00 | 96 | 1011.8 |
| 20260905091559 | 74 | 105 | 6.0 | 14.0 | 0.00 | 0.00 | 0.00 | 96 | 1011.9 |
| 20260905091059 | 74 | 120 | 4.0 | 11.0 | 0.00 | 0.00 | 0.00 | 97 | 1011.9 |
| 20260905090557 | 75 | 128 | 5.0 | 11.0 | 0.00 | 0.00 | 0.00 | 97 | 1011.9 |
| 20260905090058 | 75 | 72 | 4.0 | 14.0 | 0.00 | 0.00 | 0.00 | 97 | 1012.0 |
| 20260905085558 | 75 | 58 | 5.0 | 14.0 | 0.00 | 0.00 | 0.00 | 97 | 1011.9 |
| 20260905085055 | 75 | 93 | 4.0 | 12.0 | 0.00 | 0.00 | 0.00 | 97 | 1012.0 |
| 20260905084608 | 75 | 76 | 4.0 | 9.0 | 0.00 | 0.00 | 0.00 | 97 | 1011.7 |
| 20260905084054 | 75 | 38 | 4.0 | 9.0 | 0.00 | 0.00 | 0.00 | 97 | 1011.9 |